Hammond, LA

8:46 PM CST on December 13, 2019 (GMT -0600)
Hammond Municipal

Weather History for KHDC - October, 2019

Change the Weather History Date:

Thursday, October 17, 2019

  Actual Average (KMSY) Record (KMSY)
Temperature  
Mean Temperature 58 °F -  
Max Temperature 66 °F 78 °F 91 °F (1980)
Min Temperature 50 °F 60 °F 43 °F (1977)
Degree Days  
Heating Degree Days 7    
Growing Degree Days 8 (Base 50)    
Moisture  
Dew Point 50 °F    
Average Humidity 76    
Maximum Humidity 94    
Minimum Humidity 56    
Precipitation  
Precipitation 0.11 in - - ()
Sea Level Pressure  
Sea Level Pressure 30.01 in    
Wind  
Wind Speed 4 mph (NE)    
Max Wind Speed 7 mph    
Max Gust Speed -    
Visibility 10 miles    
Events      
Averages and records for this station are not official NWS values.
T = Trace of Precipitation, MM = Missing Value Source: NWS Daily Summary

Daily Weather History Graph

Daily Weather History Graph

Search for Another Location

Airport or City:

Astronomy

Oct. 17, 2019 Rise Set
Actual Time 7:05 AM CDT 6:28 PM CDT
Civil Twilight 6:40 AM CDT 6:52 PM CDT
Nautical Twilight 6:12 AM CDT 7:20 PM CDT
Astronomical Twilight 5:44 AM CDT 7:48 PM CDT
Moon 9:13 PM CDT (10/17) 10:25 AM CDT (10/17)
Length of Visible Light 12h 11m
Length of Day
11h 23m
Waning Gibbous, 86% of the Moon is Illuminated
Oct 17
Waning Gibbous
Oct 21
Last Quarter
Oct 27
New
Nov 4
First Quarter
Nov 12
Full

Hourly Weather History & Observations

Time (CDT) Temp. Dew Point Humidity Pressure Visibility Wind Dir Wind Speed Gust Speed Precip Events Conditions
12:15 AM 55.4 °F 50.0 °F 82% 30.05 in 10.0 mi North 5.8 mph - N/A   Clear
12:35 AM 53.6 °F 50.0 °F 88% 30.04 in 10.0 mi North 5.8 mph - N/A   Clear
12:55 AM 53.6 °F 50.0 °F 88% 30.02 in 10.0 mi NNE 6.9 mph - N/A   Clear
1:15 AM 53.6 °F 50.0 °F 88% 30.03 in 10.0 mi NE 3.5 mph - N/A   Clear
1:35 AM 53.6 °F 50.0 °F 88% 30.04 in 10.0 mi NNE 4.6 mph - 0.01 in   Clear
1:55 AM 53.6 °F 50.0 °F 88% 30.04 in 10.0 mi NNE 3.5 mph - 0.01 in   Clear
2:15 AM 53.6 °F 50.0 °F 88% 30.04 in 10.0 mi NNE 3.5 mph - N/A   Clear
2:55 AM 51.8 °F 50.0 °F 94% 30.03 in 10.0 mi NE 3.5 mph - N/A   Clear
3:15 AM 51.8 °F 50.0 °F 94% 30.02 in 10.0 mi Calm Calm - N/A   Clear
3:35 AM 51.8 °F 50.0 °F 94% 30.02 in 10.0 mi Calm Calm - 0.01 in   Clear
3:55 AM 51.8 °F 50.0 °F 94% 30.03 in 10.0 mi Calm Calm - 0.01 in   Clear
4:15 AM 51.8 °F 50.0 °F 94% 30.02 in 10.0 mi North 4.6 mph - N/A   Clear
4:35 AM 51.8 °F 50.0 °F 94% 30.01 in 10.0 mi North 5.8 mph - N/A   Clear
4:55 AM 51.8 °F 48.2 °F 88% 30.01 in 10.0 mi NNE 4.6 mph - N/A   Clear
5:15 AM 51.8 °F 48.2 °F 88% 30.01 in 10.0 mi NNE 3.5 mph - N/A   Clear
5:35 AM 51.8 °F 48.2 °F 88% 30.02 in 10.0 mi NE 3.5 mph - N/A   Clear
5:55 AM 51.8 °F 48.2 °F 88% 30.02 in 10.0 mi Calm Calm - N/A   Clear
6:15 AM 51.8 °F 46.4 °F 82% 30.03 in 10.0 mi NE 3.5 mph - N/A   Clear
6:35 AM 51.8 °F 46.4 °F 82% 30.04 in 10.0 mi Calm Calm - N/A   Clear
6:55 AM 51.8 °F 46.4 °F 82% 30.05 in 10.0 mi NNE 3.5 mph - N/A   Clear
7:15 AM 50.0 °F 46.4 °F 87% 30.05 in 10.0 mi Calm Calm - N/A   Clear
7:35 AM 51.8 °F 46.4 °F 82% 30.05 in 10.0 mi Calm Calm - N/A   Clear
7:55 AM 51.8 °F 46.4 °F 82% 30.07 in 10.0 mi Calm Calm - N/A   Clear
8:15 AM 51.8 °F 48.2 °F 88% 30.08 in 10.0 mi Calm Calm - N/A   Clear
8:35 AM 53.6 °F 48.2 °F 82% 30.07 in 10.0 mi NNE 4.6 mph - N/A   Clear
8:55 AM 53.6 °F 48.2 °F 82% 30.07 in 10.0 mi NE 4.6 mph - 0.01 in   Clear
9:15 AM 53.6 °F 48.2 °F 82% 30.07 in 10.0 mi NE 3.5 mph - N/A   Clear
9:35 AM 55.4 °F 48.2 °F 77% 30.08 in 10.0 mi ENE 3.5 mph - N/A   Clear
9:55 AM 55.4 °F 48.2 °F 77% 30.07 in 10.0 mi ENE 5.8 mph - N/A   Clear
10:15 AM 59.0 °F 48.2 °F 67% 30.07 in 10.0 mi East 4.6 mph - N/A   Clear
10:35 AM 59.0 °F 48.2 °F 67% 30.07 in 10.0 mi ENE 6.9 mph - N/A   Clear
10:55 AM 60.8 °F 48.2 °F 63% 30.07 in 10.0 mi East 4.6 mph - N/A   Clear
11:15 AM 60.8 °F 48.2 °F 63% 30.06 in 10.0 mi ESE 5.8 mph - 0.01 in   Clear
11:35 AM 62.6 °F 48.2 °F 59% 30.05 in 10.0 mi ENE 3.5 mph - 0.01 in   Clear
12:15 PM 62.6 °F 48.2 °F 59% 30.03 in 10.0 mi NNE 5.8 mph - N/A   Clear
12:35 PM 64.4 °F 50.0 °F 59% 30.03 in 10.0 mi ENE 3.5 mph - N/A   Clear
12:55 PM 64.4 °F 50.0 °F 59% 30.01 in 10.0 mi ENE 3.5 mph - N/A   Clear
1:15 PM 64.4 °F 50.0 °F 59% 30.00 in 10.0 mi ENE 3.5 mph - N/A   Clear
1:35 PM 64.4 °F 48.2 °F 56% 30.00 in 10.0 mi NE 4.6 mph - 0.01 in   Clear
1:55 PM 66.2 °F 50.0 °F 56% 30.00 in 10.0 mi NE 4.6 mph - 0.01 in   Clear
2:15 PM 64.4 °F 50.0 °F 59% 30.00 in 10.0 mi Calm Calm - N/A   Clear
2:35 PM 64.4 °F 51.8 °F 64% 29.99 in 10.0 mi NE 3.5 mph - 0.01 in   Clear
2:55 PM 64.4 °F 50.0 °F 59% 29.99 in 10.0 mi ENE 3.5 mph - 0.01 in   Clear
3:15 PM 64.4 °F 51.8 °F 64% 29.99 in 10.0 mi NNE 3.5 mph - N/A   Clear
3:35 PM 64.4 °F 51.8 °F 64% 29.98 in 10.0 mi NNE 4.6 mph - N/A   Clear
3:55 PM 64.4 °F 51.8 °F 64% 29.97 in 10.0 mi NNE 3.5 mph - N/A   Clear
4:15 PM 64.4 °F 51.8 °F 64% 29.97 in 10.0 mi NNE 4.6 mph - N/A   Clear
4:35 PM 64.4 °F 51.8 °F 64% 29.96 in 10.0 mi NNE 4.6 mph - 0.01 in   Clear
4:55 PM 62.6 °F 53.6 °F 72% 29.96 in 10.0 mi NNE 3.5 mph - 0.01 in   Clear
5:15 PM 62.6 °F 53.6 °F 72% 29.96 in 10.0 mi NNE 3.5 mph - N/A   Clear
5:35 PM 62.6 °F 53.6 °F 72% 29.96 in 10.0 mi Calm Calm - 0.01 in   Clear
5:55 PM 62.6 °F 53.6 °F 72% 29.96 in 10.0 mi NNE 3.5 mph - 0.01 in   Clear
6:15 PM 62.6 °F 53.6 °F 72% 29.96 in 10.0 mi NE 3.5 mph - N/A   Clear
6:35 PM 60.8 °F 53.6 °F 77% 29.96 in 10.0 mi NNE 3.5 mph - N/A   Clear
6:55 PM 60.8 °F 53.6 °F 77% 29.95 in 10.0 mi NNE 3.5 mph - N/A   Clear
7:15 PM 60.8 °F 53.6 °F 77% 29.95 in 10.0 mi NNE 3.5 mph - N/A   Clear
7:35 PM 60.8 °F 53.6 °F 77% 29.96 in 10.0 mi NNE 4.6 mph - 0.01 in   Clear
7:55 PM 60.8 °F 53.6 °F 77% 29.96 in 10.0 mi NNE 4.6 mph - 0.01 in   Clear
8:15 PM 60.8 °F 53.6 °F 77% 29.96 in 10.0 mi NNE 5.8 mph - N/A   Clear
8:35 PM 60.8 °F 53.6 °F 77% 29.96 in 10.0 mi NNE 5.8 mph - N/A   Clear
8:55 PM 60.8 °F 53.6 °F 77% 29.96 in 10.0 mi NE 5.8 mph - 0.01 in   Clear
9:15 PM 60.8 °F 51.8 °F 72% 29.97 in 10.0 mi ENE 4.6 mph - N/A   Clear
9:35 PM 60.8 °F 51.8 °F 72% 29.97 in 10.0 mi NE 3.5 mph - N/A   Clear
9:55 PM 59.0 °F 51.8 °F 77% 29.97 in 10.0 mi Calm Calm - N/A   Clear
10:15 PM 59.0 °F 51.8 °F 77% 29.97 in 10.0 mi NE 3.5 mph - N/A   Clear
10:35 PM 59.0 °F 53.6 °F 82% 29.97 in 10.0 mi Calm Calm - N/A   Clear
10:55 PM 59.0 °F 53.6 °F 82% 29.97 in 10.0 mi NE 3.5 mph - N/A   Clear
11:15 PM 59.0 °F 53.6 °F 82% 29.96 in 10.0 mi NE 3.5 mph - N/A   Clear
11:35 PM 59.0 °F 51.8 °F 77% 29.96 in 10.0 mi ENE 4.6 mph - 0.01 in   Clear
11:55 PM 59.0 °F 51.8 °F 77% 29.96 in 10.0 mi ENE 3.5 mph - 0.01 in   Clear